Content
SEND FEEDBACK

Daily
Averages
Monthly
Summary
United States of America

ST. LOUIS, MISSOURI


Home > North America > United States > Missouri
Elevation: 535 feet     Latitude: 38 45N     Longitude: 090 22W

WEATHER
 
SELECT A DAY
Number of Records: 199,638;   Date Range: 1/1/95 - 10/20/14
 
SHARE

PRINT THIS DATA

[ ← Previous Day ]
WEATHER ALMANAC - MARCH 8, 2013
[ Next Day → ]
[ °C ]   °F
Weather ElementAverageHighLow
Temperature42.3 °F53.1 °F (2:54 pm)25 °F (4:54 am)
Dewpoint27.7 °F30 °F (10:54 am)21.9 °F (4:54 am)
Humidity59.2 %88 % (2:54 am)38 % (3:54 pm)
Barometer30.33 in30.43 in (7:54 am)30.20 in (11:54 pm)
Wind Speed7.2 mph12.7 mph (1:54 pm)
Wind Gust18.4 mph (11:54 am)
Weather ElementAverage
Visibility9.6 mi
Wind DirectionESE (104.3 °)

Weather ElementTotal
Precipitation---
Heating Degree Days26 (Base 65)
Averaged from 23 records on March 8, 2013
WEATHER CONDITIONS BREAKOUT
WIND DIRECTION BREAKOUT
WEATHER BY HOUR - MARCH 8, 2013
[ °C ]   °F
Local TimeTemperatureDewpointHumidityBarometerVisibilityWind DirectionWind SpeedGust SpeedPrecipitationEventsConditions
1:54 AM32.0 °F26.1 °F79 %30.40 in10.0 miEast (100°)4.6 mphClear
2:54 AM28.0 °F25.0 °F88 %30.39 in10.0 miEast (80°)4.6 mphClear
3:54 AM27.0 °F23.0 °F85 %30.40 in8.0 miCalmClear
4:54 AM25.0 °F21.9 °F88 %30.39 in8.0 miEast (80°)5.8 mphClear
5:54 AM28.0 °F25.0 °F88 %30.40 in8.0 miEast (100°)4.6 mphClear
6:54 AM30.0 °F26.1 °F85 %30.40 in8.0 miESE (110°)4.6 mphClear
7:54 AM34.0 °F27.0 °F75 %30.43 in9.0 miESE (120°)3.5 mphClear
8:54 AM37.0 °F27.0 °F67 %30.43 in10.0 miSE (130°)10.4 mphPartly Cloudy
9:54 AM41.0 °F28.0 °F60 %30.43 in10.0 miSE (130°)8.1 mphScattered Clouds
10:54 AM45.0 °F30.0 °F56 %30.40 in10.0 miVariable6.9 mphClear
11:54 AM46.9 °F30.0 °F52 %30.37 in10.0 miESE (110°)11.5 mph18.4 mphScattered Clouds
12:54 PM48.9 °F28.9 °F46 %30.34 in10.0 miSSE (150°)6.9 mphScattered Clouds
1:54 PM52.0 °F30.0 °F43 %30.31 in10.0 miEast (90°)12.7 mphScattered Clouds
2:54 PM53.1 °F28.9 °F40 %30.31 in10.0 miSSE (150°)10.4 mph18.4 mphScattered Clouds
3:54 PM52.0 °F27.0 °F38 %30.29 in10.0 miESE (120°)9.2 mphMostly Cloudy
4:54 PM51.1 °F28.0 °F41 %30.28 in10.0 miESE (120°)9.2 mphOvercast
5:54 PM51.1 °F28.0 °F41 %30.27 in10.0 miEast (100°)8.1 mphClear
6:54 PM50.0 °F28.9 °F44 %30.26 in10.0 miESE (110°)8.1 mphOvercast
7:54 PM50.0 °F28.9 °F44 %30.26 in10.0 miESE (110°)4.6 mphOvercast
8:54 PM48.0 °F28.9 °F48 %30.25 in10.0 miESE (120°)6.9 mphClear
9:54 PM48.0 °F30.0 °F50 %30.25 in10.0 miESE (110°)10.4 mphPartly Cloudy
10:54 PM46.9 °F30.0 °F52 %30.23 in10.0 miSE (130°)6.9 mph0.00 inRainLight Rain
11:54 PM46.9 °F30.0 °F52 %30.20 in10.0 miSE (130°)6.9 mph0.00 inOvercast
Hourly data recorded from KSUS, located miles away from St. Louis, Missouri







STORIES FROM OUR PARTNERS